Regional Weather Roundup
Issued by NWS Little Rock, AR

Home | Current Version | Previous Version | Graphics & Text | Print | Product List | Glossary On
Versions: 1 2 3 4 5 6 7 8 9 10 11 12 13 14 15 16 17 18 19 20 21 22 23 24 25 26 27 28 29 30 31 32
000
ASUS44 KLZK 241805
RWRLZK

WEATHER ROUNDUP FOR ARKANSAS
NATIONAL WEATHER SERVICE LITTLE ROCK AR
100 PM CDT SAT JUN 24 2017

NOTE: "FAIR" INDICATES FEW OR NO CLOUDS BELOW 12,000 FEET WITH NO
SIGNIFICANT WEATHER AND/OR OBSTRUCTIONS TO VISIBILITY.

ARZ001-003-010-029-241900-
NORTHWEST ARKANSAS

CITY           SKY/WX    TMP DP  RH WIND       PRES   REMARKS
FAYETTEVILLE   PTSUNNY   76  55  48 NE5       30.22S
6HR MIN TEMP:  62; 6HR MAX TEMP:  76;

FORT SMITH     CLOUDY    80  56  43 NE7       30.18F
6HR MIN TEMP:  71; 6HR MAX TEMP:  81;

HARRISON       PTSUNNY   75  55  49 N9        30.22R
6HR MIN TEMP:  61; 6HR MAX TEMP:  76;

BENTONVILLE    CLOUDY    75  54  46 NE3       30.25R
6HR MIN TEMP:  64; 6HR MAX TEMP:  75;

ROGERS         CLOUDY    75  55  49 N9        30.24R
6HR MIN TEMP:  64; 6HR MAX TEMP:  75;

SILOAM SPGS    CLOUDY    75  54  46 N9        30.23S
6HR MIN TEMP:  63; 6HR MAX TEMP:  75;

HIGHFILL       CLOUDY    79  55  43 N7        30.24R
6HR MIN TEMP:  64; 6HR MAX TEMP:  79;

SPRINGDALE     PTSUNNY   75  55  50 NE6G13    30.25R
$$

ARZ004-005-016-241900-
NORTH CENTRAL ARKANSAS

CITY           SKY/WX    TMP DP  RH WIND       PRES   REMARKS
BATESVILLE     PTSUNNY   77  59  53 CALM      30.16S
6HR MIN TEMP:  64; 6HR MAX TEMP:  79;

FLIPPIN        PTSUNNY   79  52  38 N7        30.17
MTN HOME       MOSUNNY   77  55  46 VRB5      30.19R
6HR MIN TEMP:  62; 6HR MAX TEMP:  77;

$$

ARZ040-041-241900-
WEST CENTRAL ARKANSAS

CITY           SKY/WX    TMP DP  RH WIND       PRES   REMARKS
MENA           CLOUDY    81  61  50 E6        30.18F
MOUNT IDA      CLOUDY    77  59  53 CALM      30.15F
6HR MIN TEMP:  68; 6HR MAX TEMP:  77;

$$

ARZ009-017-025-026-028-241900-
NORTHEAST ARKANSAS

CITY           SKY/WX    TMP DP  RH WIND       PRES   REMARKS
CORNING        LGT RAIN  79  57  47 N8        30.14S
JONESBORO      CLOUDY    78  62  57 N8        30.13S
6HR MIN TEMP:  69; 6HR MAX TEMP:  79;

WALNUT RIDGE   CLOUDY    79  59  50 N8        30.14S
6HR MIN TEMP:  66; 6HR MAX TEMP:  79;

BLYTHEVILLE    CLOUDY    79  62  56 N10       30.12F
6HR MIN TEMP:  69; 6HR MAX TEMP:  80;

$$

ARZ022-023-033-042-044-241900-
CENTRAL ARKANSAS

CITY           SKY/WX    TMP DP  RH WIND       PRES   REMARKS
LITTLE ROCK    CLOUDY    77  61  57 NE9       30.15S
6HR MIN TEMP:  69; 6HR MAX TEMP:  77;

N LITTLE ROCK    N/A     75  65  69 N6        30.15S
6HR MIN TEMP:  68; 6HR MAX TEMP:  75;

JACKSONVILLE   PTSUNNY   77  64  63 N7        30.15S
6HR MIN TEMP:  68; 6HR MAX TEMP:  77;

CONWAY           N/A     79  63  57 N5        30.15S
SEARCY         CLOUDY    79  63  57 N7        30.16F
6HR MIN TEMP:  68; 6HR MAX TEMP:  79;

HOT SPRINGS    CLOUDY    78  61  55 E9        30.16S
6HR MIN TEMP:  72; 6HR MAX TEMP:  78;

RUSSELLVILLE   CLOUDY    78  62  57 VRB3      30.17S
6HR MIN TEMP:  68; 6HR MAX TEMP:  78;

CLINTON        FAIR      77  59  53 VRB5      30.17S
$$

ARZ036-241900-
EAST ARKANSAS

CITY           SKY/WX    TMP DP  RH WIND       PRES   REMARKS
WEST MEMPHIS   MOSUNNY   78  66  66 N8        30.11R
6HR MIN TEMP:  69; 6HR MAX TEMP:  79;

$$

ARZ050-053-066-070-073-241900-
SOUTHWEST ARKANSAS

CITY           SKY/WX    TMP DP  RH WIND       PRES   REMARKS
CAMDEN         CLOUDY    82  64  54 N8        30.12S
TEXARKANA      CLOUDY    78  63  59 NE10      30.13F
6HR MIN TEMP:  70; 6HR MAX TEMP:  78;

EL DORADO      CLOUDY    79  66  64 NE10      30.11F
6HR MIN TEMP:  71; 6HR MAX TEMP:  80;

DE QUEEN       CLOUDY    77  65  66 NE5       30.13F
6HR MIN TEMP:  72; 6HR MAX TEMP:  77;

$$

ARZ056-057-069-241900-
SOUTHEAST ARKANSAS

CITY           SKY/WX    TMP DP  RH WIND       PRES   REMARKS
PINE BLUFF     MOSUNNY   81  66  60 N12       30.13S
6HR MIN TEMP:  70; 6HR MAX TEMP:  81;

STUTTGART      PTSUNNY  N/A N/A N/A N9        30.14S
MONTICELLO     CLOUDY    79  67  66 VRB6      30.12R
6HR MIN TEMP:  71; 6HR MAX TEMP:  80;


$$






USA.gov is the U.S. government's official web portal to all federal, state and local government web resources and services.